Dewpoint
73 73 73 75 74 74 75 75 75 75 75 76 76 76 76 75 76 75 75 75 74 74 74 74 74 74 74 74 73 72 72 74 75 76 76 76 75 75 76 75 76 76 75 76 76 76 76 76 76 76 76 75 76 76 76 75 76 75 75 75 76 76 76 76 76 76 76 75 75 75 75 75 76 76 75 75 74 74 73 71 71 69 72 73 74
72 72 73 75 75 75 75 75 75 75 75 76 76 76 76 76 75 75 75 75 75 74 74 74 74 74 74 74 74 74 73 74 76 75 76 76 75 75 75 75 75 75 76 75 75 76 76 76 76 76 75 75 75 75 76 76 75 75 75 76 75 75 76 76 76 76 76 76 76 75 75 75 75 75 75 74 75 75 75 73 71 70 72 74 74
72 73 74 74 75 75 75 75 75 76 76 75 75 76 75 75 75 75 75 75 75 75 75 74 74 74 74 74 74 74 74 74 76 76 76 75 75 76 75 76 75 75 75 75 76 76 76 75 75 75 75 75 75 75 76 76 76 76 75 75 75 75 75 76 76 76 76 76 76 76 75 75 75 74 74 75 75 75 75 74 72 72 71 73 74
71 71 73 75 75 75 75 75 75 75 75 75 75 75 75 75 75 75 74 74 74 75 75 75 74 74 74 74 74 75 75 76 75 75 74 75 75 76 75 75 75 75 76 75 76 76 75 75 75 75 75 75 76 75 75 76 75 75 75 75 75 75 75 75 75 75 75 76 76 74 73 73 74 75 75 75 75 75 75 75 75 75 75 74 74
71 72 72 74 75 75 75 74 75 75 75 75 75 75 75 75 75 75 74 75 75 75 75 75 75 74 74 74 75 75 75 75 75 74 75 74 75 75 75 75 76 76 76 76 75 76 76 75 75 75 75 76 76 75 75 76 75 75 75 75 75 75 75 75 74 73 74 75 71 71 70 72 74 74 74 74 74 74 75 75 75 74 74 75 74
70 72 73 73 73 75 75 75 75 75 75 75 75 75 75 75 75 75 74 75 75 75 75 75 75 75 75 76 74 75 75 74 74 74 75 75 75 76 76 76 76 76 76 76 76 76 76 75 76 75 76 75 75 75 75 76 75 75 75 75 75 75 75 74 74 73 72 73 73 72 71 71 71 72 74 74 74 74 74 74 75 74 75 75 75
69 72 72 73 74 75 75 75 75 75 75 75 75 75 75 75 75 75 74 74 75 75 75 75 74 75 74 75 75 75 75 75 75 75 76 75 76 76 76 75 76 76 76 75 75 75 75 75 76 76 75 75 75 75 75 75 76 75 75 75 75 75 75 75 73 73 72 73 72 71 71 70 71 72 74 74 74 74 74 74 74 74 74 74 73
68 71 72 73 74 75 75 75 75 75 75 75 74 74 75 75 75 75 74 75 75 75 75 75 75 76 75 75 75 75 76 76 75 76 75 76 76 76 76 75 76 76 76 76 75 75 75 75 75 76 75 75 75 75 75 75 75 75 75 76 76 75 75 74 73 72 73 73 74 73 74 71 71 71 74 74 74 74 73 74 74 74 73 74 74
73 70 71 73 74 76 76 75 75 74 75 75 75 74 75 75 75 73 74 74 75 75 75 75 75 75 74 73 74 74 74 75 76 76 75 76 76 76 76 76 76 76 75 75 75 75 74 75 75 76 76 75 75 75 75 75 75 75 76 75 75 74 74 74 72 73 74 73 75 73 73 70 69 71 74 74 74 74 73 73 74 74 73 73 72
68 70 72 74 74 76 75 75 75 75 75 75 75 75 75 75 75 74 74 74 75 75 75 74 74 74 74 74 74 74 75 75 75 76 76 76 76 75 75 75 75 75 75 76 76 75 75 75 75 75 75 75 75 75 75 75 75 75 75 75 75 75 74 74 72 71 72 73 72 70 70 71 69 70 74 75 75 75 75 74 74 74 74 74 74
66 69 71 73 74 76 75 75 75 75 75 75 74 74 75 75 75 74 74 74 74 74 74 74 74 74 74 74 73 74 75 76 76 76 76 75 75 75 75 75 76 75 75 75 75 75 75 75 76 75 75 75 75 75 75 75 75 75 75 75 74 74 74 74 75 68 69 69 70 71 72 73 71 72 75 74 74 74 74 74 74 74 74 74 74
66 70 72 73 77 75 75 75 75 74 75 74 74 75 75 75 76 74 74 74 74 74 74 74 74 74 75 75 74 74 75 75 75 75 75 76 76 76 76 76 76 75 75 75 75 76 76 76 76 76 76 76 76 75 74 75 75 75 75 74 74 74 74 74 73 68 70 71 71 70 69 69 72 73 74 74 74 73 74 74 74 74 74 74 74
65 69 71 71 73 75 75 75 75 75 74 74 74 75 75 75 75 75 74 73 74 74 74 74 74 75 74 74 73 73 74 74 75 75 76 75 75 75 75 76 75 75 75 75 75 75 75 76 76 76 76 76 76 75 74 75 74 74 73 73 72 74 74 75 67 68 69 70 70 70 70 72 72 74 73 73 73 73 73 73 73 73 73 73 73
65 66 68 69 73 77 76 76 75 74 75 75 75 75 75 75 75 74 74 74 74 74 74 74 75 75 75 74 73 72 74 75 75 75 75 75 75 75 76 75 75 75 75 75 75 75 75 76 76 76 76 75 76 76 75 75 75 74 74 73 72 73 74 72 71 69 69 69 70 68 70 71 72 74 74 74 74 73 73 73 72 72 72 72 71
64 66 68 70 74 75 77 76 76 76 76 75 75 75 75 75 74 74 74 74 74 74 74 74 75 75 74 74 74 72 73 74 74 75 76 75 75 75 75 75 75 75 75 75 75 75 75 75 75 75 75 75 76 76 75 75 75 74 74 73 73 73 74 66 63 66 66 68 69 67 69 72 74 73 73 73 73 74 73 73 73 72 72 71 70
65 66 68 69 73 75 76 77 76 75 75 75 75 75 75 75 75 74 74 74 74 75 74 74 74 75 73 73 73 72 73 75 75 75 75 75 75 75 75 75 75 75 74 75 75 76 75 75 75 76 75 75 75 76 75 75 75 75 74 73 74 73 74 75 64 66 66 67 68 68 69 72 73 72 72 73 74 73 73 73 73 73 72 71 70
66 68 68 70 72 74 76 75 75 75 75 74 74 75 74 74 74 74 74 74 74 74 75 74 75 74 73 74 73 73 73 75 75 75 75 75 75 75 75 75 75 74 74 75 75 75 75 75 75 75 75 75 75 75 74 75 75 75 75 75 74 74 74 76 63 65 66 67 66 67 70 71 72 72 72 73 73 73 73 73 73 73 72 72 72
66 67 69 70 71 72 72 74 75 75 75 75 74 74 74 74 74 74 74 74 74 74 75 74 75 74 73 73 74 74 74 75 75 75 76 75 75 75 75 76 75 75 75 75 75 75 74 74 75 75 75 76 75 75 74 74 75 75 75 75 73 76 75 77 65 66 66 67 67 69 68 73 73 73 73 73 73 73 72 72 72 72 72 72 72
64 65 69 69 70 73 70 73 74 74 75 74 74 74 74 73 74 74 74 74 74 74 74 74 74 74 74 74 74 75 74 75 75 75 75 76 75 75 75 75 75 75 75 75 75 75 75 75 75 75 74 74 74 75 74 74 74 74 75 75 76 76 77 76 61 63 66 66 68 68 70 73 73 72 72 72 72 72 71 71 71 71 71 72 72
63 63 67 72 70 72 72 72 73 72 74 74 75 75 74 74 74 74 74 74 74 73 72 73 73 74 74 73 74 75 74 74 75 74 75 76 75 75 75 75 75 74 75 75 75 74 74 75 75 75 75 75 75 75 75 74 75 75 75 76 76 76 74 62 65 64 64 65 68 67 73 74 73 73 72 71 71 71 71 71 71 70 71 71 71
61 65 69 68 69 71 72 72 73 72 72 74 73 74 74 74 74 74 74 74 74 72 73 72 73 73 73 74 74 74 75 75 75 75 75 75 75 75 75 75 75 74 74 74 74 74 74 74 75 75 75 75 75 75 75 75 75 75 75 76 76 75 66 68 63 66 63 65 69 67 74 73 73 72 71 70 70 70 70 70 70 70 70 70 71
63 66 69 69 69 71 72 72 72 73 72 73 74 74 74 74 75 75 74 74 74 73 73 73 74 74 73 74 75 74 75 75 75 75 75 75 75 75 75 75 74 74 74 74 74 74 74 75 75 75 75 75 74 74 74 75 76 75 76 76 75 71 69 68 65 66 64 68 69 72 73 73 73 72 71 71 71 71 71 70 70 71 71 71 71
64 66 68 68 69 69 70 70 71 73 72 72 73 74 74 75 75 74 74 74 74 75 74 74 74 75 74 76 76 76 75 75 76 74 75 74 75 75 75 75 74 74 74 74 74 74 75 75 75 75 75 74 74 73 69 70 72 76 76 73 75 65 67 68 66 67 67 68 67 73 73 74 73 73 72 72 72 71 71 72 72 72 72 72 72
64 65 67 68 69 68 69 70 71 72 71 71 73 74 75 75 75 74 73 73 73 73 73 73 73 73 74 75 76 75 74 75 74 75 75 73 75 76 76 74 75 75 75 74 74 74 74 74 74 74 74 73 72 72 66 68 70 71 71 71 63 66 68 68 65 66 65 67 66 74 73 73 73 73 72 72 72 71 71 71 72 72 73 73 73
65 65 67 68 69 69 69 70 71 72 71 70 72 73 73 74 74 75 73 75 73 74 74 74 73 73 74 75 74 74 74 74 75 75 74 74 74 74 75 73 73 73 74 72 72 72 73 71 72 73 71 71 70 66 64 65 66 65 64 64 64 67 60 65 64 64 66 70 70 73 73 73 74 73 73 72 71 71 70 71 71 71 71 72 72
65 65 66 68 68 68 68 69 70 71 72 73 71 73 73 74 73 74 73 73 73 74 75 74 74 74 74 75 74 74 74 74 75 75 73 74 74 73 73 72 69 71 74 70 69 72 73 67 69 69 70 66 63 65 63 66 63 62 63 67 64 66 64 61 63 65 68 70 73 73 74 73 74 74 73 73 72 72 72 72 72 70 71 71 72
62 66 67 68 68 68 69 68 69 72 72 72 72 74 74 73 74 74 74 74 74 74 74 75 73 74 75 75 74 71 72 74 74 74 73 74 72 71 70 69 68 68 69 67 69 71 68 66 67 67 64 60 59 59 65 64 65 62 62 63 66 63 66 63 63 64 68 72 73 75 74 73 74 74 73 73 73 73 72 72 72 72 71 72 72
65 65 66 67 67 67 70 71 72 71 72 72 72 73 73 72 74 74 74 73 74 73 73 73 73 74 75 75 77 74 72 72 73 74 74 72 71 71 70 66 66 66 68 68 68 67 67 67 69 66 65 66 61 63 60 61 62 66 60 61 63 64 67 62 65 66 65 72 73 75 75 73 74 74 74 74 74 74 73 73 72 72 72 73 73
64 64 65 65 65 66 69 68 71 72 74 70 70 71 71 71 70 73 72 73 73 72 74 74 73 74 74 74 75 73 72 72 72 72 72 71 70 68 66 64 68 69 69 67 69 70 68 66 67 65 67 68 64 61 63 59 65 61 60 59 58 64 64 64 65 63 63 69 71 73 75 75 73 74 75 74 74 74 74 74 73 73 73 73 74
62 64 65 66 65 64 67 68 70 71 70 71 72 72 72 71 72 72 72 72 74 76 73 74 75 74 73 73 74 75 72 74 74 72 71 70 69 67 68 68 68 69 68 69 69 68 67 66 66 68 66 68 66 63 66 62 56 58 60 61 59 56 63 61 64 61 64 68 72 72 76 75 74 74 74 75 75 75 75 75 75 74 74 75 75
62 62 64 66 66 65 67 69 71 73 71 69 71 72 72 71 72 72 73 73 75 73 74 72 73 74 74 73 74 74 73 74 71 71 71 68 69 69 67 69 68 69 70 69 70 70 69 68 67 67 69 69 67 64 65 63 63 58 61 56 57 61 59 63 57 57 57 64 69 68 73 75 75 74 74 75 75 75 76 76 75 75 76 76 76
61 62 65 67 63 64 66 68 70 71 71 70 73 72 72 72 73 71 71 71 73 74 75 72 73 73 74 73 75 75 72 69 71 70 69 68 68 68 68 69 69 68 70 68 69 70 71 68 69 69 69 70 68 65 68 61 62 57 61 56 59 58 59 60 54 55 57 63 67 71 69 71 75 75 74 74 75 75 75 76 76 76 76 76 76
63 63 64 64 62 64 66 69 69 71 70 69 70 71 71 70 71 70 71 71 71 72 69 69 73 72 74 73 76 75 74 72 71 70 69 65 67 69 69 70 70 71 70 70 70 71 69 67 69 70 69 70 66 65 61 59 59 62 60 58 56 56 57 58 58 55 54 58 63 63 71 69 70 75 75 75 76 76 76 76 76 76 77 77 77
64 65 63 63 63 64 65 67 69 69 69 67 70 70 70 71 71 70 72 71 69 68 69 70 72 72 74 75 75 74 72 72 72 70 68 68 69 70 70 70 70 72 71 70 68 69 67 68 66 68 66 69 64 65 61 60 58 59 60 58 62 63 61 56 54 55 58 57 61 66 62 69 73 70 72 75 76 76 76 76 77 77 77 77 78
64 63 63 63 63 64 64 66 69 68 68 69 68 70 70 69 69 70 70 70 70 69 69 70 70 71 72 74 74 74 73 73 73 71 68 70 68 68 69 68 71 71 69 69 69 69 68 68 68 68 68 65 63 63 63 62 55 55 64 64 59 60 61 57 56 55 58 63 64 61 65 62 67 73 72 71 75 77 76 76 76 76 76 77 77
64 64 64 64 63 64 66 65 68 68 69 69 70 70 69 69 69 70 71 71 68 68 68 68 69 68 70 72 74 74 73 74 74 73 68 68 66 70 68 72 71 72 70 70 72 70 69 72 70 69 68 64 66 59 63 63 60 57 59 61 60 62 60 59 59 55 55 61 61 62 62 63 66 64 65 67 71 73 77 76 76 76 77 77 77
64 63 64 65 65 63 66 64 66 67 68 68 70 71 71 70 70 68 68 70 67 67 66 67 68 68 69 70 73 73 74 74 74 75 71 70 69 69 67 70 72 73 70 70 71 69 69 62 71 71 71 71 64 58 57 63 59 57 59 58 57 65 59 65 60 58 56 62 59 55 59 59 67 61 65 61 67 73 77 77 77 77 77 77 77
65 64 64 64 64 61 64 64 67 67 69 69 71 70 70 70 69 69 70 68 66 65 66 66 67 66 68 70 72 72 73 74 74 75 78 70 71 74 70 72 73 72 73 70 70 68 70 70 70 70 70 70 67 63 60 59 53 52 60 56 60 57 56 61 64 61 61 61 62 60 58 54 59 59 56 62 58 63 67 75 77 77 78 79 79
64 64 65 65 66 64 67 67 67 68 69 71 72 71 70 70 68 69 69 68 69 67 66 66 66 67 66 71 73 71 73 73 74 76 75 70 70 71 72 74 73 74 72 70 69 71 72 71 71 70 71 68 67 65 63 63 54 53 52 55 54 62 65 59 64 63 56 53 55 60 55 61 59 59 64 60 59 62 65 69 73 74 76 77 78
65 66 68 67 68 68 68 67 68 68 70 70 71 68 69 68 66 67 68 69 68 66 67 66 65 66 68 69 72 70 72 73 74 74 76 72 70 70 72 71 73 73 72 70 69 69 70 71 70 68 70 68 68 66 62 62 59 58 60 58 59 59 61 60 61 59 61 59 60 58 56 52 60 58 56 58 60 56 63 67 72 66 66 71 77
67 66 67 67 67 68 69 67 67 69 70 69 69 67 67 67 68 65 65 66 68 67 65 65 65 67 67 67 71 69 71 72 74 74 74 73 73 73 72 74 73 73 73 72 71 72 72 72 69 73 69 68 65 62 58 61 60 57 59 57 60 61 58 60 59 58 56 56 56 52 55 57 58 59 61 57 59 56 57 69 70 70 69 71 79
68 66 68 68 68 68 68 67 67 68 68 68 68 67 69 67 66 64 64 65 67 66 67 66 65 65 68 70 70 69 71 73 73 75 75 73 73 71 73 75 73 74 75 74 74 73 73 72 69 70 69 64 65 61 59 63 59 54 54 54 53 55 61 56 52 53 56 56 56 58 61 52 53 55 58 63 63 56 56 66 73 69 72 73 72
66 65 68 68 68 69 70 69 68 68 67 68 69 69 68 68 67 66 64 65 66 67 65 66 66 66 68 69 70 71 72 73 74 74 73 74 73 74 73 73 74 74 74 74 73 72 71 69 70 69 72 67 63 62 64 64 64 53 56 56 50 51 52 54 55 56 51 54 54 53 55 51 51 56 61 60 62 66 57 66 68 71 75 76 73
66 65 66 67 67 70 70 70 70 69 69 69 70 70 69 70 70 69 69 67 67 69 69 69 67 65 65 65 72 72 71 72 72 71 72 74 75 74 72 72 75 75 74 74 73 71 71 70 69 71 70 70 63 62 62 62 62 59 58 53 53 47 51 55 58 54 51 51 50 50 51 49 51 54 64 58 56 63 63 64 63 68 76 75 77
65 66 65 66 65 69 70 71 70 70 69 70 71 71 72 72 73 73 72 70 70 70 69 66 68 65 64 66 69 71 71 72 72 72 72 75 75 75 74 74 74 73 73 72 71 69 68 71 71 71 69 70 68 65 64 61 62 64 64 59 55 49 53 53 49 55 51 50 50 49 51 48 47 55 55 55 58 61 59 60 69 68 73 76 76
64 65 64 64 66 69 71 72 71 70 69 71 72 72 72 72 71 71 70 70 70 69 68 65 64 62 60 63 69 69 69 72 72 72 71 73 73 75 75 75 74 72 71 71 71 71 68 73 70 70 71 70 71 70 66 61 60 65 62 58 63 60 60 59 52 67 63 52 50 56 59 61 56 53 60 55 56 58 64 61 64 66 69 72 71
64 64 65 65 66 69 71 72 71 71 69 72 72 72 72 71 71 68 68 69 68 67 68 66 64 64 64 64 69 69 71 71 71 73 73 74 75 76 77 74 74 73 72 72 71 69 66 68 71 72 72 72 72 74 70 71 63 62 59 58 59 58 59 58 63 58 62 65 62 56 54 56 58 61 64 59 59 67 61 64 58 58 69 72 73
62 63 64 65 68 70 72 72 72 71 70 72 73 73 72 71 71 68 67 67 65 66 68 68 67 67 67 67 68 66 70 71 72 73 75 75 75 76 75 74 74 73 72 71 70 69 71 73 72 74 74 74 72 70 69 68 65 65 61 61 62 60 60 57 59 58 60 63 63 61 57 60 61 68 62 61 72 65 60 66 64 64 66 71 73
61 62 64 66 68 69 72 72 72 72 71 73 73 72 72 71 70 68 67 66 64 65 67 69 68 68 69 70 69 67 69 70 72 72 73 74 74 75 77 76 74 73 72 70 70 70 71 74 74 74 73 72 71 71 71 70 66 70 67 68 64 62 60 61 61 62 61 63 60 58 63 64 62 63 65 60 67 62 60 67 68 66 73 74 74
60 61 63 65 67 69 71 72 72 72 72 73 72 72 72 72 71 68 67 66 65 66 67 68 70 71 70 71 71 71 67 68 69 73 74 73 74 75 74 73 73 71 71 71 72 73 74 73 74 72 75 74 74 71 70 71 68 67 66 67 69 65 64 61 62 64 70 70 63 60 65 70 72 68 65 69 69 67 60 66 69 70 75 72 73
61 61 61 65 68 69 71 71 72 72 73 73 72 72 71 71 71 70 69 69 67 67 67 68 69 70 70 69 70 70 70 67 66 69 70 71 73 74 72 71 72 73 72 73 72 70 70 69 70 73 73 73 73 73 72 70 66 68 65 64 65 60 61 62 63 59 59 63 64 64 58 64 63 64 67 63 64 64 63 66 63 72 76 73 75